SCP
0 0 0 0 0 0 0 0 0 0 0 0 0 0 0 0 0 0 0 0 0 0 0 0 0 0 0 0 0 0 0 0 0 0 0 0 0 0 0 0 0 0 0
0 0 0 0 0 0 0 0 0 0 0 0 0 0 0 0 0 0 0 0 0 0 0 0 0 0 0 0 0 0 0 0 0 0 0 0 0 0 0 0 0 0 0
0 0 0 0 0 0 0 0 0 0 0 0 0 0 0 0 0 0 0 0 0 0 0 0 0 0 0 0 0 0 0 0 0 0 0 0 0 0 0 0 0 0 0
0 0 0 0 0 0 0 0 0 0 0 0 0 0 0 0 0 0 0 0 0 0 0 0 0 0 0 0 0 0 0 0 0 0 0 0 0 0 0 0 0 0 0
0 0 0 0 0 0 0 0 0 0 0 0 0 0 0 0 0 0 0 0 0 0 0 0 0 0 0 0 0 0 0 0 0 0 0 0 0 0 0 0 0 0 0
0 0 0 0 0 0 0 0 0 0 0 0 0 0 0 0 0 0 0 0 0 0 0 0 0 0 0 0 0 0 0 0 0 0 0 0 0 0 0 0 0 0 0
0 0 0 0 0 0 0 0 0 0 0 0 0 0 0 0 0 0 0 0 0 0 0 0 0 0 0 0 0 0 0 0 0 0 0 0 0 0 0 0 0 0 0
0 0 0 0 0 0 0 0 0 0 0 0 0 0 0 0 0 0 0 0 0 0 0 0 0 0 0 0 0 0 0 0 0 0 0 0 0 0 0 0 0 0 0
0 0 0 0 0 0 0 0 0 0 0 0 0 0 0 0 0 0 0 0 0 0 0 0 0 0 0 0 0 0 0 0 0 0 0 0 0 0 0 0 0 0 0
0 0 0 0 0 0 0 0 0 0 0 0 0 0 0 0 0 0 0 0 0 0 0 0 0 0 0 0 0 0 0 0 0 0 0 0 0 0 0 0 0 0 0
0 0 0 0 0 0 0 0 0 0 0 0 0 0 0 0 0 0 0 0 0 0 0 0 0 0 0 0 1 1 0 0 0 0 0 0 0 0 0 0 0 0 0
1 1 1 1 1 0 0 0 0 0 0 0 0 0 0 0 0 0 0 0 0 0 0 0 0 0 0 1 1 0 0 0 0 0 0 0 0 0 0 0 0 0 0
1 1 1 1 1 1 1 1 1 1 1 1 1 1 0 0 0 0 0 0 0 0 0 0 0 0 0 0 0 0 0 0 0 0 0 0 0 0 0 0 0 0 0
1 1 1 1 1 1 1 1 1 1 1 1 1 1 1 0 0 0 0 0 0 0 0 0 0 1 1 0 0 0 0 0 0 0 0 0 0 0 0 0 0 0 0
1 1 1 1 1 1 1 1 1 1 1 1 1 1 1 1 0 0 0 0 0 0 0 0 0 1 1 0 0 0 0 0 0 0 0 0 0 0 0 0 0 0 0
1 1 1 1 1 1 1 1 1 1 1 1 1 1 1 1 1 1 1 1 0 0 0 0 0 1 0 0 0 0 0 0 0 0 0 0 0 0 0 0 0 0 0
1 1 1 1 1 1 1 1 1 1 1 1 1 1 1 1 1 1 1 1 1 0 0 0 0 1 1 0 0 0 0 0 0 0 0 0 0 0 0 0 0 0 0
2 2 1 1 1 1 1 1 1 1 1 1 1 1 1 1 1 1 1 1 1 1 1 1 1 1 1 1 0 0 0 0 0 0 0 0 0 0 0 0 0 0 0
2 2 2 1 1 1 1 1 1 1 1 1 1 1 1 1 1 1 1 1 1 1 1 1 1 1 1 1 1 0 0 0 0 0 0 0 0 0 0 0 0 0 0
2 2 2 2 1 1 1 1 1 1 1 1 1 1 1 1 1 1 1 1 1 1 1 1 1 1 1 1 1 0 0 0 0 0 0 0 0 0 0 0 0 0 0
2 2 2 2 2 1 1 1 1 1 1 1 1 1 1 1 1 1 1 1 1 1 1 1 1 1 1 1 1 1 0 0 0 0 0 0 0 0 0 0 0 0 0
2 2 2 2 2 1 1 1 1 1 1 1 1 1 1 1 1 1 1 1 1 1 1 1 1 1 1 1 1 1 1 0 0 0 0 0 0 0 0 0 0 0 0
2 2 2 2 2 1 1 1 1 1 1 1 1 1 1 1 1 1 1 1 1 1 1 1 1 1 1 1 1 1 1 1 1 1 0 0 0 0 0 0 0 0 0
2 2 2 2 2 1 1 0 0 1 1 1 1 1 1 1 1 1 1 1 1 1 0 1 1 1 1 1 1 1 1 1 1 1 1 0 0 0 0 0 0 0 0
2 2 2 2 2 1 1 0 0 1 1 1 1 1 1 1 1 1 1 1 1 1 0 0 0 1 1 1 1 1 1 1 1 1 1 1 0 0 0 0 0 0 0
2 2 2 2 1 1 1 0 0 1 1 1 1 1 1 1 1 0 1 1 1 1 1 0 0 0 0 0 0 1 1 1 1 1 1 1 0 0 0 0 0 0 0
Wind_Speed
4 5 3 3 4 4 4 3 3 3 3 3 3 3 2 2 2 4 5 12 12 12 12 11 11 11 11 10 10 10 10 10 9 9 9 8 8 8 8 7 7 6 6
4 4 4 3 3 3 4 3 3 3 3 3 3 3 3 2 2 4 5 8 12 12 11 12 12 11 11 11 11 11 11 11 10 10 10 9 9 9 9 8 8 8 7
4 3 3 3 2 3 3 2 2 2 3 3 3 3 2 2 2 3 4 5 7 11 11 12 12 12 12 12 12 12 12 12 11 11 10 10 10 9 9 9 9 9 8
4 3 3 3 3 2 3 3 2 2 2 2 2 2 2 2 3 3 4 5 5 6 10 13 12 13 13 13 13 13 13 12 11 12 12 11 11 10 10 11 11 10 10
5 4 3 3 3 2 2 4 3 2 2 2 2 2 2 2 3 4 4 5 5 5 6 10 13 13 14 14 14 13 13 13 13 13 13 13 12 11 11 11 11 11 10
5 4 3 4 3 2 2 2 1 2 1 2 3 2 2 3 3 3 4 4 4 6 7 7 8 9 14 13 13 13 13 13 13 13 13 13 12 12 11 11 11 10 10
5 4 3 4 3 2 3 3 2 3 2 2 2 2 2 3 3 3 3 3 4 5 5 6 6 5 6 12 12 12 12 13 13 12 13 13 13 11 11 10 10 10 10
4 5 4 4 4 3 3 3 2 2 2 3 2 1 1 1 2 4 3 3 3 3 4 6 6 6 5 5 7 12 12 12 12 12 12 12 12 12 12 11 11 11 11
5 3 4 4 3 4 4 4 3 3 2 2 2 2 1 1 1 2 3 2 2 2 3 3 5 5 6 4 5 9 12 11 11 11 10 10 11 11 12 12 12 11 11
5 5 4 4 3 3 4 5 4 3 3 2 1 1 2 1 1 1 1 2 3 3 3 3 3 4 4 3 3 6 9 10 10 10 10 10 9 10 11 12 12 12 12
5 5 5 4 4 3 3 3 3 3 2 2 2 2 2 2 3 2 2 1 1 2 3 2 2 2 4 4 4 6 8 9 8 8 9 9 9 8 8 9 10 11 11
4 5 5 4 4 3 3 3 3 4 3 2 1 2 2 2 2 2 2 2 2 2 2 2 2 2 3 4 6 8 9 9 8 7 7 7 7 7 7 7 8 9 10
4 5 5 4 4 3 3 3 3 3 3 3 3 2 2 2 1 1 1 1 2 1 1 1 2 2 2 3 4 8 7 8 8 7 7 6 6 6 6 6 7 7 7
5 5 5 5 5 4 4 3 3 4 4 4 4 3 2 2 1 2 1 1 1 2 1 2 1 1 2 3 4 7 5 7 7 7 7 6 6 6 5 5 5 5 6
3 5 5 5 5 5 4 4 3 4 3 4 4 4 3 2 2 2 2 2 2 2 2 2 1 1 1 2 5 3 4 7 7 7 7 7 6 6 5 4 4 4 4
3 3 4 5 5 4 5 4 4 4 4 4 3 3 3 3 2 2 3 2 2 2 2 1 1 1 1 2 4 3 4 8 8 7 7 7 6 6 5 5 4 4 4
3 3 3 4 5 5 5 4 5 4 5 4 4 4 4 3 2 2 2 2 2 2 3 2 1 1 2 2 2 2 3 4 4 8 8 7 7 6 5 5 4 4 3
4 4 4 5 5 5 4 5 6 5 5 5 4 4 4 3 3 3 2 3 2 3 3 3 2 2 3 3 3 3 2 3 4 8 10 9 8 7 6 5 4 4 4
4 4 5 5 5 4 4 5 5 5 5 5 5 4 4 3 3 3 3 3 3 3 3 3 2 2 2 2 2 2 3 2 3 6 9 9 9 8 7 6 5 4 4
4 4 4 4 4 4 4 4 4 4 4 4 4 4 4 4 4 4 3 3 3 3 2 2 2 2 2 2 2 2 3 3 3 3 5 6 8 9 8 7 6 5 5
4 4 4 4 4 4 4 4 4 5 4 4 4 4 4 4 5 4 4 3 3 3 3 3 2 2 2 2 3 3 3 2 2 3 3 4 4 4 5 7 7 7 6
3 3 4 4 4 3 2 3 3 3 3 4 4 3 4 4 5 6 6 5 4 4 4 3 2 3 3 3 3 3 3 2 3 2 3 3 4 4 4 5 7 9 8
3 3 3 3 3 2 2 2 3 3 4 3 4 4 4 4 4 4 6 6 6 7 6 4 3 3 3 3 3 3 3 3 4 3 3 3 3 4 4 5 8 10 10
3 3 3 3 2 2 2 3 4 4 4 4 4 4 4 3 3 3 4 4 4 4 6 5 4 4 4 3 4 4 4 4 3 2 3 3 3 3 3 3 8 10 10
2 2 2 2 2 2 2 3 4 4 4 4 4 4 3 3 3 3 3 4 4 3 4 6 6 6 6 5 4 3 3 3 3 2 2 2 2 2 2 2 5 10 10
1 1 1 1 2 2 2 2 3 3 3 3 3 2 2 2 2 1 2 3 4 4 3 4 4 5 5 5 6 4 3 3 3 2 2 2 2 1 1 2 2 4 5
Wind_Direction
146 143 152 158 174 163 165 185 186 185 170 194 213 203 207 203 162 142 150 170 173 179 183 187 193 196 198 197 198 197 197 196 195 194 197 200 201 201 200 197 199 203 209
140 148 157 161 172 160 171 181 177 171 180 197 217 199 200 196 159 151 156 175 183 186 189 193 198 201 205 205 205 204 203 203 202 201 202 204 205 205 207 207 208 212 218
143 152 151 157 170 167 159 171 179 173 192 201 206 208 204 198 178 175 164 176 185 194 197 201 204 206 209 210 211 211 209 208 207 206 207 209 210 210 213 214 214 216 220
151 158 158 165 169 167 163 175 186 188 198 210 204 219 199 185 197 192 188 187 181 188 199 207 209 210 212 213 215 215 213 212 210 210 211 211 213 217 219 220 220 221 223
162 167 168 162 172 177 183 196 178 179 193 210 218 220 212 197 200 213 207 197 185 184 180 200 209 211 213 215 217 217 215 214 214 215 215 216 217 220 221 222 222 224 225
173 174 171 173 183 175 183 203 160 173 194 221 237 225 218 207 201 212 218 207 188 192 187 186 196 212 216 216 218 218 217 217 217 218 218 217 219 221 222 222 221 223 224
177 178 171 167 181 184 185 185 175 201 203 210 233 245 242 217 212 210 215 214 200 197 189 175 184 194 205 214 218 218 219 220 219 217 216 217 218 216 215 215 218 221 222
177 188 176 185 184 183 184 189 187 201 221 204 207 220 257 271 248 217 205 214 207 192 200 192 188 192 196 184 203 213 218 220 220 218 217 216 216 214 214 218 220 221 221
181 191 175 202 183 184 180 191 192 197 217 225 210 195 208 227 248 256 215 202 191 202 215 196 189 185 190 180 182 203 212 216 219 222 220 216 216 216 217 220 220 218 221
189 185 183 195 197 206 174 194 188 202 209 223 227 209 226 212 207 257 264 214 198 206 227 219 188 178 182 172 167 180 199 207 212 216 219 218 216 217 219 221 221 221 221
198 191 184 187 200 208 192 200 177 197 208 217 217 207 222 224 225 220 245 252 229 204 212 212 191 176 179 170 164 175 185 192 199 207 214 217 214 212 215 220 224 225 223
200 198 189 190 202 208 202 197 195 203 216 229 241 245 226 221 224 216 228 245 246 231 206 191 182 189 187 165 174 170 176 181 190 199 207 211 212 212 215 222 227 229 226
196 195 194 186 199 200 203 198 199 214 211 222 231 251 252 253 258 243 224 252 259 240 204 192 202 192 179 138 149 166 172 175 185 195 196 200 206 209 214 218 222 223 222
191 182 186 185 192 197 208 199 208 209 208 217 228 232 239 238 248 246 218 223 268 270 232 219 209 178 145 139 156 172 167 176 184 189 189 192 198 202 205 208 211 214 221
195 175 185 191 196 202 211 203 213 215 204 211 220 224 230 226 228 236 232 225 219 245 253 224 199 152 139 132 162 172 159 177 184 188 188 191 195 196 195 196 200 206 203
200 171 193 200 201 204 210 211 216 214 211 213 212 216 229 232 226 225 224 221 222 227 246 224 208 168 161 166 173 181 172 169 184 188 188 188 187 187 190 190 191 191 195
199 191 206 218 209 206 209 212 221 211 215 217 219 213 218 229 237 246 234 229 230 226 232 241 202 181 175 187 170 198 161 171 184 192 188 187 186 185 183 182 186 190 194
200 202 212 223 220 212 208 217 228 220 215 214 218 221 226 227 230 252 252 246 237 226 216 227 219 196 197 193 178 197 191 192 183 189 188 184 182 182 180 184 192 201 205
208 213 215 217 222 218 213 224 231 228 225 219 216 217 225 226 240 241 238 243 244 244 221 221 229 201 187 179 176 201 214 210 209 183 185 186 189 187 185 187 192 199 207
208 215 220 222 223 225 222 223 230 229 232 231 227 222 220 220 233 238 240 242 248 252 242 230 226 203 177 177 190 213 227 213 215 195 187 184 187 191 192 190 192 198 204
211 212 222 228 224 227 230 227 226 227 229 237 235 221 220 219 223 227 237 228 232 234 237 236 231 202 194 182 208 220 227 214 209 195 186 192 180 187 194 198 197 201 201
219 217 218 223 225 229 216 225 236 239 230 235 241 231 224 215 216 217 225 224 223 227 234 235 229 215 217 216 215 226 225 222 228 195 194 212 187 192 191 192 193 194 199
214 218 218 225 225 229 231 223 237 246 240 234 240 246 251 238 223 223 226 223 226 231 233 235 241 243 232 221 222 235 235 234 237 210 200 226 198 201 197 192 184 190 195
212 225 224 223 222 233 235 228 233 231 241 239 236 235 236 251 258 251 240 234 230 234 230 227 235 250 248 235 224 227 235 242 240 214 183 223 216 211 194 185 184 186 192
207 219 225 216 220 242 248 237 237 238 235 238 238 243 226 226 257 256 240 239 235 240 239 235 228 228 229 227 220 219 229 237 252 230 191 212 231 210 197 199 190 191 192
209 214 223 214 216 227 241 239 245 246 242 241 231 224 213 218 240 236 237 246 244 240 243 241 237 232 225 224 214 216 225 232 256 248 194 200 227 204 227 204 183 180 195